Terminal Aerodrome Forecast
Issued by NWS Salt Lake City, UT

Home | Current Version | Previous Version | Text Only | Print | Product List | Glossary On
Versions: 1 2 3 4 5 6 7 8 9 10 11 12 13 14 15 16 17 18 19 20 21 22 23 24 25 26 27 28 29 30 31 32 33 34 35 36 37
000
FTUS45 KSLC 200632 AAA
TAFCDC
TAF AMD
KCDC 200632Z 2007/2106 28010G18KT P6SM -SHRA BKN070 OVC100
     FM200700 VRB04KT P6SM SCT090 BKN120
     FM201800 22010G18KT P6SM SCT070 BKN120
     FM210100 19005KT P6SM SCT100=

USA.gov is the U.S. government's official web portal to all federal, state and local government web resources and services.